Regional Weather Roundup
Issued by NWS

Home | Current Version | Previous Version | Graphics & Text | Print | Product List | Glossary On
Versions: 1 2 3 4 5 6 7 8 9 10 11 12 13 14 15 16 17 18 19 20 21 22 23 24 25 26 27 28 29 30 31 32 33 34 35 36 37 38 39 40 41 42 43 44 45 46 47 48 49 50
729
ASUS43 KOAX 251410
RWRNE

WEATHER ROUNDUP FOR NEBRASKA
NATIONAL WEATHER SERVICE OMAHA NE
900 AM CDT THU MAY 25 2017

NOTES: SATELLITE DATA IS BEING USED TO AUGMENT CLOUD COVER ABOVE
       12000 FEET.
       "FAIR" INDICATES FEW OR NO CLOUDS BELOW 12,000 FEET WITH NO
       SIGNIFICANT WEATHER AND/OR OBSTRUCTIONS TO VISIBILITY.

  * THESE STATIONS DO NOT REPORT WEATHER SUCH AS RAIN...SNOW OR FOG.

NEZ001>004-019>022-054>056-251500-
NEBRASKA PANHANDLE

CITY           SKY/WX    TMP DP  RH WIND       PRES   REMARKS
SCOTTSBLUFF    PTSUNNY   58  46  64 NW7       29.54S
ALLIANCE       PTSUNNY   58  51  78 MISG      29.52R
CHADRON        CLOUDY    58  46  64 W5        29.54R
GORDON         FAIR      58  50  75 W6        29.52R
KIMBALL        MOSUNNY   58  48  71 NW3       29.58S
SIDNEY         CLOUDY    59  48  67 N10       29.55S
$$

NEZ057>060-069>072-079>082-251500-
SOUTHWEST NEBRASKA

CITY           SKY/WX    TMP DP  RH WIND       PRES   REMARKS
NORTH PLATTE   PTSUNNY   54  48  80 SE5       29.52S
IMPERIAL       CLOUDY    61  48  62 NW16G28   29.50S
LEXINGTON      MOSUNNY   54  46  72 S14       29.54S
MCCOOK         MOSUNNY   58  48  69 S9        29.51R
OGALLALA       MOSUNNY   59  50  73 W5        29.52R
$$

NEZ005>010-023>029-035>040-094-251500-
NORTH CENTRAL NEBRASKA

CITY           SKY/WX    TMP DP  RH WIND       PRES   REMARKS
VALENTINE      PTSUNNY   62  46  55 W13       29.47F
AINSWORTH      CLOUDY    55  47  73 SW15      29.51R
BROKEN BOW     CLOUDY    55  46  71 S14G25    29.54R
O`NEILL        SUNNY     60  44  55 S20G28    29.53R
ORD            SUNNY     59  43  55 S20G28    29.55R
THEDFORD       CLOUDY    55  47  72 S8        29.51F
$$

NEZ041-046>049-061>064-073>077-083>087-251500-
SOUTH CENTRAL NEBRASKA

CITY           SKY/WX    TMP DP  RH WIND       PRES   REMARKS
GRAND ISLAND   SUNNY     58  46  64 S21G28    29.58R
AURORA         SUNNY     59  44  58 S15G28    29.58F
HASTINGS       CLOUDY    58  44  60 S16G25    29.58S
HEBRON         SUNNY     59  46  62 S16       29.61F
HOLDREGE       SUNNY     57  44  62 S21G26    29.54S
KEARNEY *      SUNNY     59  43  55 S28G33    29.56S
YORK           SUNNY     59  45  58 S23       29.60S
$$

NEZ011>018-030>034-042>045-251500-
NORTHEAST NEBRASKA

CITY           SKY/WX    TMP DP  RH WIND       PRES   REMARKS
NORFOLK        CLOUDY    59  44  57 S18G30    29.58S
ALBION         SUNNY     60  44  54 S18G24    29.59R
BLAIR          CLOUDY    58  49  71 S14       29.66S
FREMONT        CLOUDY    59  47  65 MISG      29.64F
TEKAMAH        MOSUNNY   60  51  72 SE16      29.65F
WAYNE          PTSUNNY   60  47  61 S18G24    29.60S
$$

NEZ050>053-065>068-078-088>093-251500-
SOUTHEAST NEBRASKA

CITY           SKY/WX    TMP DP  RH WIND       PRES   REMARKS
LINCOLN        LGT RAIN  61  49  64 S13       29.65R
OMAHA EPPLEY   CLOUDY    60  49  66 S15       29.67S
BEATRICE       CLOUDY    59  48  67 S10       29.64S
FALLS CITY     SUNNY     61  50  67 S12       29.68S
NEBRASKA CITY  SUNNY     62  47  58 S15       29.68R
PLATTSMOUTH    PTSUNNY   60  50  69 S10G18    29.68S
$$

NEZ044-045-051>053-067-251500-
OMAHA AREA

CITY           SKY/WX    TMP DP  RH WIND       PRES   REMARKS
OMAHA EPPLEY   CLOUDY    60  49  66 S15       29.67S
BLAIR          CLOUDY    58  49  71 S14       29.66S
FREMONT        CLOUDY    59  47  65 MISG      29.64F
MILLARD        CLOUDY    60  51  71 S10G17    29.66S
OFFUTT AFB     PTSUNNY   58  49  72 S10       29.67S
PLATTSMOUTH    PTSUNNY   60  50  69 S10G18    29.68S
WAHOO          FAIR      59  47  65 SE12G18   29.64F
$$




USA.gov is the U.S. government's official web portal to all federal, state and local government web resources and services.